Weather in Zaragoza

Spain     41˚39′31″N   0˚53′19″E
temp.,
°C
wind,
m/s
gust,
m/s
humid.,
%
clouds,
%
prec.,
mm/h
press.,
hPa
HPBL,
m
28 november, sat
sat2801:00+12˚e41178100 1.4 1008568
04:00+11˚ene1484100 0.4 1007182
07:00+11˚wnw2386100 0.4 100796
10:00+11˚wnw238673 0.2 1008171
13:00+13˚nne227165 0.2 1007497
16:00+14˚e117024 0.0 1006433
19:00+11˚ene118456 0.0 100923
22:00+11˚se018559 0.0 101123
29 november, sun
sun2901:00+10˚nne118567 0.0 101222
04:00+9˚e12870 0.0 101322
07:00+8˚ne118815 0.0 101422
10:00+12˚nne0075100 0.0 101634
13:00+15˚sse006285 0.0 1016393
16:00+15˚ssw116018 0.0 1015401
19:00+11˚s00789 0.0 101723
22:00+10˚w118025 0.0 101923
30 november, mon
mon3001:00+10˚nnw128236 0.0 102022
04:00+9˚wnw238261 0.0 102032
07:00+8˚w238657 0.0 102130
10:00+10˚wnw247682 0.0 1022163
13:00+13˚wnw356391 0.0 1022443
16:00+14˚wnw3663100 0.0 1021545
19:00+11˚wnw3472100 0.0 102362
22:00+10˚wnw3574100 0.0 1024127
1 december, tue
tue101:00+8˚wnw4680100 0.0 1025152
04:00+6˚wnw46771 0.0 1024157
07:00+5˚wnw47701 0.0 1024178
10:00+6˚wnw49560 0.0 1024370
13:00+10˚nw57421 0.0 1022516
16:00+13˚wnw6114626 0.0 1020708
19:00+10˚nw12195861 0.0 1022609
22:00+9˚nw111864100 0.0 1021643
2 december, wed
wed201:00+9˚nw111870100 0.0 1020558
04:00+9˚nw122076100 0.0 1019603
07:00+8˚nw11188260 0.0 1018760
10:00+9˚nw13185441 0.0 1018821
13:00+10˚nw12143724 0.0 10171030
16:00+9˚nw1215368 0.0 1016761
19:00+6˚nw1117554 0.0 1018515
22:00+4˚nw1014700 0.0 1019478